Regional Weather Roundup
Issued by NWS

Home | Current Version | Previous Version | Text Only | Print | Product List | Glossary On
Versions: 1 2 3 4 5 6 7 8 9 10 11 12 13 14 15 16 17 18 19 20 21 22 23 24 25 26 27 28 29 30 31 32 33 34 35 36 37 38 39 40 41 42 43 44 45 46 47 48 49 50
000
ASUS44 KFWD 280215
RWRTX
NORTH TEXAS HOURLY WEATHER ROUNDUP
NATIONAL WEATHER SERVICE FORT WORTH TX
800 PM CST TUE JAN 27 2015

NOTE: "FAIR" INDICATES FEW OR NO CLOUDS BELOW 12,000 FEET WITH NO
SIGNIFICANT WEATHER AND/OR OBSTRUCTIONS TO VISIBILITY.

TXZ118-119-280300-
DALLAS/FORT WORTH METROPLEX

CITY           SKY/WX    TMP DP  RH WIND       PRES   REMARKS
DFW AIRPORT    MOCLDY    62  39  42 SE6       30.11R
DALLAS LOVE    MOCLDY    62  40  44 SE6       30.11R
FTW MEACHAM    PTCLDY    67  39  35 S3        30.10S
DAL-EXECUTIVE  PTCLDY    65  39  38 S3        30.11R
FTW-ALLIANCE   MOCLDY    59  37  44 CALM      30.10S
FTW-SPINKS     CLEAR     58  39  49 CALM      30.13R
ARLINGTON      CLEAR     55  38  52 CALM      30.11S
GRAND PRAIRIE  PTCLDY    64  42  43 CALM      30.12S
MESQUITE       CLEAR     59  39  47 SE3       30.12R
LANCASTER      PTCLDY    61  39  45 CALM      30.12S
$$

TXZ091>094-102>105-117-120-121-131>134-280300-
NORTH CENTRAL TEXAS

CITY           SKY/WX    TMP DP  RH WIND       PRES   REMARKS
SHRMAN/DENISON PTCLDY    60  41  49 S8        30.11S
GAINESVILLE    PTCLDY    60  37  42 S3        30.12S
BOWIE          PTCLDY    62  37  40 CALM      30.10F
BRIDGEPORT     CLEAR     63  40  43 S7        30.12S
DECATUR        PTCLDY    66  35  31 S7        30.11S
DENTON         PTCLDY    62  38  40 SE3       30.10S
MCKINNEY       PTCLDY    60  40  47 S3        30.11S
GREENVILLE     CLEAR     54  43  66 CALM      30.12S
ROCKWALL       PTCLDY    66  40  38 S8        30.11S
TERRELL        CLEAR     59  42  53 CALM      30.12R
WAXAHACHIE     PTCLDY    62  42  47 CALM      30.13S
CLEBURNE       FAIR      66  37  34 S6        30.13S
GRANBURY       CLEAR     58  41  52 SE5       30.13R
$$

TXZ083>090-098>101-113>116-127>130-139>142-154-155-280300-
WESTERN NORTH TEXAS

CITY           SKY/WX    TMP DP  RH WIND       PRES   REMARKS
WICHITA FALLS  PTCLDY    65  39  38 SW7       30.08S
WF-KICKAPOO    PTCLDY    52  32  47 S6        30.10S
VERNON         CLEAR     56  35  44 S9        30.09S
ABILENE        CLEAR     58  39  49 S8        30.13S
ABILENE-DYESS  CLEAR     52  40  65 S7        30.12S
BRECKENRIDGE   CLEAR     65  35  31 S9        30.11S
GRAHAM         MOCLDY    62  38  42 E5        30.10R
MINERAL WELLS  PTCLDY    64  36  35 SE9       30.10R
STEPHENVILLE   PTCLDY    59  40  49 SE3       30.15S
COMANCHE       CLEAR     65  39  37 S5        30.14S
BROWNWOOD      CLEAR     55  41  58 CALM      30.14S
COLEMAN        CLEAR     60  39  47 CALM      30.14S
BRADY          CLEAR     66  30  26 SE6       30.14S
$$

TXZ143>147-156>162-174-175-280300-
CENTRAL TEXAS

CITY           SKY/WX    TMP DP  RH WIND       PRES   REMARKS
WACO           CLEAR     52  43  71 S6        30.13R
WACO-TSTC      CLEAR     55  39  54 MISG      30.13
WACO-MCGREGOR  CLEAR     61  39  44 S5        30.14S
HILLSBORO      CLEAR     61  40  46 E3        30.12S
CORSICANA      CLEAR     62  39  42 SE5       30.13R
MEXIA          CLEAR     58  42  56 CALM      30.12R
HEARNE         CLEAR     55  47  74 CALM      30.14R
CAMERON        CLEAR     63  46  52 CALM      30.13S
TEMPLE         CLEAR     63  39  42 SE5       30.13S
KILLEEN        CLEAR     64  42  45 S6        30.14R
FORT HOOD      CLEAR     64  42  44 MISG      30.13R
GATESVILLE     CLEAR     63  43  48 CALM      30.16R
HAMILTON       CLEAR     62  38  40 SE8       30.15R
LAMPASAS       CLEAR     62  41  46 CALM      30.14S
$$

TXZ095>097-106>112-122>126-135>138-148>153-164>167-280300-
EAST TEXAS

CITY           SKY/WX    TMP DP  RH WIND       PRES   REMARKS
PARIS          CLEAR     61  36  39 CALM      30.12S
SULPHUR SPRNGS CLEAR     58  40  51 E3        30.14S
MOUNT PLEASANT CLEAR     55  40  57 SE5       30.13F
GILMER         CLEAR     57  42  57 CALM      30.12S
MINEOLA        CLEAR     54  39  58 CALM      30.13S
TYLER          CLEAR     62  39  42 SE5       30.12S
LONGVIEW       CLEAR     54  44  69 S5        30.12S
MARSHALL       CLEAR     55  45  68 CALM      30.15S
ATHENS         CLEAR     54  41  62 CALM      30.12S
PALESTINE      PTCLDY    56  45  68 CALM      30.14S
JACKSONVILLE   CLEAR     67  38  35 CALM      30.15S
HENDERSON      CLEAR     54  44  70 CALM      30.14S
NACOGDOCHES    CLEAR     54  43  66 CALM      30.14S
LUFKIN         CLEAR     56  47  71 CALM      30.13S
$$

SUPPLEMENTAL OBSERVATIONS (CENTRAL)

CITY           SKY/WX    TMP DP  RH WIND       PRES   REMARKS
LAKE TEXOMA      N/A     68  37  32 SW9         N/A
CADDO GRASSLND   N/A     54  45  71 S3          N/A
PAT MAYSE LAKE   N/A     55  45  67 SE1         N/A
GREENVILLE       N/A     63  36  36 SE2         N/A
CEDAR HILL       N/A     64  37  36 SE7         N/A
LAKE LIMESTONE   N/A     61  37  41 SE3         N/A
MCGREGOR         N/A     57  43  58 SW3         N/A
TEMPLE           N/A     66  41  39 E3          N/A
$$

SUPPLEMENTAL OBSERVATIONS (WEST)

CITY           SKY/WX    TMP DP  RH WIND       PRES   REMARKS
MILLERS CREEK    N/A     55  41  58 SW5         N/A
LBJ GRASSLAND    N/A     64  36  34 CALM        N/A
GRANBURY         N/A     57  39  51 SE5         N/A
COMANCHE         N/A     64  34  32 S6          N/A
HAMBY            N/A     57  41  54 S5          N/A
IVIE RESERVOIR   N/A     61  39  44 NW2         N/A
COLORADO BEND    N/A     61  36  39 CALM        N/A
$$

SUPPLEMENTAL OBSERVATIONS (EAST)

CITY           SKY/WX    TMP DP  RH WIND       PRES   REMARKS
TEXARKANA        N/A     46  37  71 CALM        N/A
CADDO LAKE       N/A     46  41  81 CALM        N/A
LUFKIN           N/A     54  46  76 MISG        N/A
N SABINE NF      N/A     50  43  76 MISG        N/A
$$

SUPPLEMENTAL OBSERVATIONS ARE A COLLECTION OF AUTOMATED INSTRUMENTS
THAT ARE MAINTAINED BY A VARIETY OF FEDERAL AND STATE AGENCIES.
CERTAIN ELEMENTS...SUCH AS HUMIDITY VALUES AND SUSTAINED WIND
SPEEDS...MAY BE APPROXIMATED.



USA.gov is the U.S. government's official web portal to all federal, state and local government web resources and services.